{"data":{"norad_id":59735,"epoch":"2026-09-21T09:42:44.894592Z","epoch_age_seconds":93169,"freshness":"FRESH","line1":"1 59735U 24090F   26264.40468628  .00000809  00000+0  38900-4 0  9992","line2":"2 59735  43.0038 151.1559 0001019 272.7932  87.2803 15.27580070133458","mean_motion":15.2758007,"eccentricity":0.0001019,"inclination_deg":43.0038,"raan_deg":151.1559,"arg_perigee_deg":272.7932,"mean_anomaly_deg":87.2803,"bstar":3.89e-5,"rev_number":13345,"period_min":94.266744393962,"perigee_km":482.34973159265,"apogee_km":483.74804127631,"semimajor_km":6861.1858864345,"source":"CELESTRAK","updated_at":"2026-09-22T09:00:49.062523Z"}}